Time,TemperatureF,DewpointF,PressureIn,WindDirection,WindDirectionDegrees,WindSpeedMPH,WindSpeedGustMPH,Humidity,HourlyPrecipIn,Conditions,Clouds,dailyrainin,SoftwareType,DateUTC
2013-01-06 15:12:00,52.0,44.0,30.14,ESE,123,0.0,1.0,75,0.00,,,0.00,,2013-01-06 21:12:00,
2013-01-06 15:33:00,52.0,43.0,30.15,ENE,58,0.0,3.0,71,0.00,,,0.00,,2013-01-06 21:33:00,
2013-01-06 15:43:00,52.0,43.0,30.15,ENE,58,0.0,3.0,71,0.00,,,0.00,,2013-01-06 21:43:00,
2013-01-06 15:52:00,52.0,44.0,30.15,South,191,0.0,2.0,73,0.00,,,0.00,,2013-01-06 21:52:00,
2013-01-06 16:02:00,52.0,44.0,30.16,WSW,252,0.0,4.0,73,0.00,,,0.00,,2013-01-06 22:02:00,
2013-01-06 16:12:00,52.0,44.0,30.16,WSW,252,0.0,4.0,73,0.00,,,0.00,,2013-01-06 22:12:00,
2013-01-06 16:22:00,52.0,44.0,30.16,West,260,0.0,3.0,73,0.00,,,0.00,,2013-01-06 22:22:00,
2013-01-06 16:33:00,52.0,44.0,30.16,SW,227,0.0,1.0,74,0.00,,,0.00,,2013-01-06 22:33:00,
2013-01-06 16:43:00,52.0,44.0,30.16,SW,227,0.0,1.0,74,0.00,,,0.00,,2013-01-06 22:43:00,
2013-01-06 16:52:00,51.0,44.0,30.16,West,270,0.0,2.0,77,0.00,,,0.00,,2013-01-06 22:52:00,
2013-01-06 17:02:00,50.0,44.0,30.16,SE,131,0.0,2.0,79,0.00,,,0.00,,2013-01-06 23:02:00,
2013-01-06 17:13:00,50.0,44.0,30.16,SE,131,0.0,2.0,79,0.00,,,0.00,,2013-01-06 23:13:00,
2013-01-06 17:22:00,50.0,44.0,30.16,WSW,255,0.0,1.0,80,0.00,,,0.00,,2013-01-06 23:22:00,
2013-01-06 17:33:00,49.0,44.0,30.16,WSW,255,0.0,1.0,82,0.00,,,0.00,,2013-01-06 23:33:00,
2013-01-06 17:43:00,49.0,44.0,30.16,WSW,255,0.0,1.0,82,0.00,,,0.00,,2013-01-06 23:43:00,
2013-01-06 17:52:00,49.0,45.0,30.16,WSW,255,0.0,0.0,85,0.00,,,0.00,,2013-01-06 23:52:00,
2013-01-06 18:03:00,48.0,44.0,30.16,WSW,255,0.0,0.0,85,0.00,,,0.00,,2013-01-07 00:03:00,
2013-01-06 18:12:00,48.0,44.0,30.16,WSW,255,0.0,0.0,85,0.00,,,0.00,,2013-01-07 00:12:00,
2013-01-06 18:23:00,48.0,44.0,30.17,West,260,0.0,1.0,86,0.00,,,0.00,,2013-01-07 00:23:00,
2013-01-06 18:33:00,47.0,44.0,30.18,West,260,0.0,0.0,88,0.00,,,0.00,,2013-01-07 00:33:00,
2013-01-06 18:43:00,47.0,44.0,30.18,West,260,0.0,0.0,88,0.00,,,0.00,,2013-01-07 00:43:00,
2013-01-06 18:53:00,46.0,43.0,30.18,West,259,0.0,1.0,89,0.00,,,0.00,,2013-01-07 00:53:00,
2013-01-06 19:02:00,46.0,43.0,30.19,WSW,254,0.0,0.0,89,0.00,,,0.00,,2013-01-07 01:02:00,
2013-01-06 19:12:00,46.0,43.0,30.19,WSW,254,0.0,0.0,89,0.00,,,0.00,,2013-01-07 01:12:00,
2013-01-06 19:23:00,45.0,42.0,30.19,West,269,0.0,1.0,90,0.00,,,0.00,,2013-01-07 01:23:00,
2013-01-06 19:32:00,45.0,42.0,30.20,West,269,0.0,0.0,90,0.00,,,0.00,,2013-01-07 01:32:00,
2013-01-06 19:43:00,45.0,42.0,30.20,West,269,0.0,0.0,90,0.00,,,0.00,,2013-01-07 01:43:00,
2013-01-06 19:52:00,44.0,41.0,30.20,West,269,0.0,0.0,90,0.00,,,0.00,,2013-01-07 01:52:00,
2013-01-06 20:02:00,44.0,42.0,30.21,West,266,0.0,0.0,91,0.00,,,0.00,,2013-01-07 02:02:00,
2013-01-06 20:12:00,44.0,42.0,30.21,West,266,0.0,0.0,91,0.00,,,0.00,,2013-01-07 02:12:00,
2013-01-06 20:23:00,43.0,41.0,30.21,West,266,0.0,0.0,93,0.00,,,0.00,,2013-01-07 02:23:00,
2013-01-06 20:32:00,42.0,40.0,30.22,West,266,0.0,0.0,93,0.00,,,0.00,,2013-01-07 02:32:00,
2013-01-06 20:42:00,42.0,40.0,30.22,West,266,0.0,0.0,93,0.00,,,0.00,,2013-01-07 02:42:00,
2013-01-06 20:53:00,41.0,39.0,30.22,West,266,0.0,0.0,94,0.00,,,0.00,,2013-01-07 02:53:00,
2013-01-06 21:02:00,41.0,40.0,30.22,West,266,0.0,0.0,95,0.00,,,0.00,,2013-01-07 03:02:00,
2013-01-06 21:12:00,41.0,40.0,30.22,West,266,0.0,0.0,95,0.00,,,0.00,,2013-01-07 03:12:00,
2013-01-06 21:23:00,42.0,41.0,30.22,WSW,252,0.0,0.0,96,0.00,,,0.00,,2013-01-07 03:23:00,
2013-01-06 21:33:00,42.0,41.0,30.22,WSW,250,0.0,0.0,95,0.00,,,0.00,,2013-01-07 03:33:00,
2013-01-06 21:43:00,42.0,41.0,30.22,WSW,250,0.0,0.0,95,0.00,,,0.00,,2013-01-07 03:43:00,
2013-01-06 21:52:00,41.0,40.0,30.22,SSW,195,0.0,1.0,95,0.00,,,0.00,,2013-01-07 03:52:00,
2013-01-06 22:02:00,42.0,41.0,30.23,East,96,0.0,1.0,95,0.00,,,0.00,,2013-01-07 04:02:00,
2013-01-06 22:13:00,42.0,41.0,30.23,East,96,0.0,1.0,95,0.00,,,0.00,,2013-01-07 04:13:00,
2013-01-06 22:22:00,42.0,41.0,30.23,SE,132,0.0,0.0,95,0.00,,,0.00,,2013-01-07 04:22:00,
2013-01-06 22:33:00,42.0,41.0,30.23,SSE,148,0.0,2.0,95,0.00,,,0.00,,2013-01-07 04:33:00,
2013-01-06 22:42:00,42.0,41.0,30.23,SSE,148,0.0,2.0,95,0.00,,,0.00,,2013-01-07 04:42:00,
2013-01-06 22:52:00,42.0,41.0,30.23,SSE,148,0.0,2.0,95,0.00,,,0.00,,2013-01-07 04:52:00,
2013-01-06 23:03:00,43.0,41.0,30.23,East,84,1.0,3.0,91,0.00,,,0.00,,2013-01-07 05:03:00,
2013-01-06 23:12:00,43.0,41.0,30.23,East,84,1.0,3.0,91,0.00,,,0.00,,2013-01-07 05:12:00,
2013-01-06 23:22:00,43.0,40.0,30.23,ENE,70,0.0,4.0,90,0.00,,,0.00,,2013-01-07 05:22:00,
2013-01-06 23:33:00,42.0,39.0,30.23,East,100,0.0,2.0,90,0.00,,,0.00,,2013-01-07 05:33:00,
2013-01-06 23:42:00,42.0,39.0,30.23,East,100,0.0,2.0,90,0.00,,,0.00,,2013-01-07 05:42:00,
2013-01-06 23:52:00,42.0,40.0,30.24,East,93,1.0,5.0,91,0.00,,,0.00,,2013-01-07 05:52:00,